Tracking 28335 objects as of 4-Dec-2023
HD Live streaming from Space Station
objects crossing your sky now

STARLINK-1851

Track STARLINK-1851 now!
10-day predictions
STARLINK-1851 is classified as:


NORAD ID: 46783
Int'l Code: 2020-074AW
Perigee: 553.6 km
Apogee: 555.3 km
Inclination: 53.1 °
Period: 95.6 minutes
Semi major axis: 6925 km
RCS: Unknown
Launch date: October 24, 2020
Source: United States (US)
Launch site: AIR FORCE EASTERN TEST RANGE (AFETR)
Your satellite tracking list
Your tracking list is empty




NASA's NSSDC Master Catalog

Two Line Element Set (TLE):
1 46783U 20074AW  23337.55578126  .00010203  00000-0  70346-3 0  9997
2 46783  53.0549  64.7525 0001273 101.1169 258.9963 15.06369363171886
Source of the keplerian elements: AFSPC